Location: Wildlife_Club
(35.6000°N, 81.4330°W)
Time: 19:52:11
(UTC-05:00)

Amateur Radio Satellites - All Passes

Search period start: 22 December 2014 19:22
Search period end: 23 December 2014 19:22
Location: Wildlife_Club, 35.6000°N, 81.4330°W

Satellite Date Start Highest point End Downlink Frequencies (MHz)
Time Altitude Azimuth
CUTE 1.7 + AOD 2 22 Dec 19:27:17 19:28:49 12° 66° (ENE) 19:30:22 437.475
STRAND 1 22 Dec 19:42:23 19:47:24 61° 286° (WNW) 19:52:24 437.568
CUSAT 1 22 Dec 20:00:52 20:08:38 49° 77° (ENE) 20:16:45 437.405
SO-50 22 Dec 20:04:35 20:08:42 37° 113° (ESE) 20:12:58 436.795
AAUSAT CUBESAT 2 22 Dec 20:08:44 20:11:59 22° 70° (ENE) 20:15:16 437.432
Oscar 11 22 Dec 20:11:25 20:13:01 12° 65° (ENE) 20:14:38 145.826/435.025
ISS 22 Dec 20:17:19 20:20:35 76° 223° (SW) 20:23:50 145.825
CUBESAT XI-V 22 Dec 20:17:26 20:20:38 19° 292° (WNW) 20:23:50 437.345
UKube-1 22 Dec 20:21:35 20:23:07 12° 65° (ENE) 20:24:39 .
CANX-2 22 Dec 20:29:28 20:33:43 72° 76° (ENE) 20:38:00 2200.000
HO-68 22 Dec 20:32:36 20:39:48 87° 74° (ENE) 20:47:01 435.675
BRITE-PL 22 Dec 20:39:19 20:43:30 86° 258° (WSW) 20:47:39 437.365/2234.400
RS-15 22 Dec 20:41:52 20:53:10 68° 57° (ENE) 21:04:56 29.354- 29.394
COMPASS 1 22 Dec 20:44:41 20:48:52 70° 76° (ENE) 20:53:06 437.405
CUBEBUG 2 22 Dec 20:45:59 20:48:49 18° 68° (ENE) 20:51:40 437.445
ZACube-1 22 Dec 20:47:28 20:49:24 13° 66° (ENE) 20:51:21 437.345
DELFI C3 22 Dec 20:47:59 20:51:21 25° 71° (ENE) 20:54:43 145.870
SEEDS 22 Dec 20:53:25 20:57:39 76° 259° (WSW) 21:01:56 437.485
GOMX 1 22 Dec 20:54:08 20:58:17 84° 258° (WSW) 21:02:28 467.674
CUTE 1.7 + AOD 2 22 Dec 21:00:05 21:04:14 52° 260° (W) 21:08:27 437.475
DANDE 22 Dec 21:03:32 21:11:38 77° 264° (W) 21:20:18 436.750
DOVE 4 22 Dec 21:08:42 21:12:49 80° 258° (WSW) 21:17:02 437.250
FUNcube-1 22 Dec 21:11:48 21:15:12 25° 70° (ENE) 21:18:40 145.935
BEESAT 2 22 Dec 21:16:08 21:19:12 19° 50° (NE) 21:22:13 435.950
CINEMA 3 22 Dec 21:16:44 21:20:51 71° 76° (ENE) 21:25:06 145.822/145.860
UWE-3 22 Dec 21:18:05 21:21:54 35° 72° (ENE) 21:25:47 435.000/436.395/437.385
PCSat 22 Dec 21:20:48 21:22:33 11° 45° (NE) 21:24:18 145.827
DX 1 22 Dec 21:25:58 21:30:16 69° 75° (ENE) 21:34:36 434.975-435.025
HUMSAT D 22 Dec 21:28:47 21:31:59 22° 70° (ENE) 21:35:13 437.325/437.525
AISAT 22 Dec 21:39:42 21:43:34 30° 71° (ENE) 21:47:25 437.250
CUBEBUG 1 22 Dec 21:40:40 21:41:13 10° 64° (ENE) 21:41:45 437.445
AAUSAT CUBESAT 2 22 Dec 21:44:00 21:47:30 25° 264° (W) 21:51:01 437.432
CUSAT 1 22 Dec 21:44:17 21:51:29 36° 271° (W) 21:58:56 437.405
Oscar 11 22 Dec 21:44:27 21:48:41 54° 260° (W) 21:52:57 145.826/435.025
SO-50 22 Dec 21:45:49 21:49:21 22° 310° (NW) 21:52:59 436.795
UKube-1 22 Dec 21:54:31 21:58:45 55° 259° (W) 22:03:01 .
ANTELSAT 22 Dec 21:59:19 22:01:59 15° 93° (E) 22:04:38 437.575/2403.000
BEESAT 3 22 Dec 22:11:18 22:15:29 83° 61° (ENE) 22:19:35 437.485
YUBILEINY 22 Dec 22:17:56 22:22:35 16° 79° (ENE) 22:27:13 435.215
ZACube-1 22 Dec 22:21:20 22:25:19 45° 261° (W) 22:29:25 437.345
CUBEBUG 2 22 Dec 22:21:31 22:25:14 32° 263° (W) 22:29:04 437.445
50 SAT 22 Dec 22:22:22 22:26:22 80° 77° (ENE) 22:30:25 437.505
BUGSAT 1 22 Dec 22:23:00 22:23:41 10° 92° (E) 22:24:22 437.445
DELFI C3 22 Dec 22:23:21 22:26:31 21° 265° (W) 22:29:43 145.870
HO-68 22 Dec 22:24:52 22:28:13 14° 269° (W) 22:31:35 435.675
VELOX 1 22 Dec 22:30:57 22:35:21 68° 258° (WSW) 22:39:45 145.980
AIST 2 22 Dec 22:31:51 22:36:04 54° 58° (ENE) 22:40:12 435.215
TIGRISAT 22 Dec 22:31:57 22:36:14 33° 97° (E) 22:40:29 435.000
DUCHIFAT 1 22 Dec 22:33:24 22:36:33 20° 95° (E) 22:39:41 145.980
ESTCUBE 1 22 Dec 22:42:08 22:46:35 59° 75° (ENE) 22:51:03 437.505/2401.250
FUNcube-1 22 Dec 22:48:11 22:51:28 22° 265° (W) 22:54:49 145.935
QB50P2 22 Dec 22:48:13 22:52:01 31° 97° (E) 22:55:49 145.880/145.840
DANDE 22 Dec 22:50:17 22:54:05 14° 278° (W) 22:57:58 436.750
BEESAT 2 22 Dec 22:53:43 22:57:32 35° 247° (WSW) 23:01:18 435.950
RS-15 22 Dec 22:55:19 23:04:44 31° 255° (WSW) 23:14:32 29.354- 29.394
UWE-3 22 Dec 22:56:04 22:58:34 15° 267° (W) 23:01:06 435.000/436.395/437.385
POLYITAN 1 22 Dec 22:57:44 23:01:47 40° 99° (E) 23:05:50 437.675
NANOSAT C BR1 22 Dec 22:57:48 23:01:49 39° 99° (E) 23:05:49 145.865
PCSat 22 Dec 23:01:23 23:06:50 80° 63° (ENE) 23:12:14 145.827
UNISAT 6 22 Dec 23:02:05 23:06:49 76° 102° (ESE) 23:11:31 437.425
HUMSAT D 22 Dec 23:04:15 23:07:38 24° 264° (W) 23:11:05 437.325/437.525
QB50P1 22 Dec 23:12:29 23:16:43 61° 101° (E) 23:20:56 145.935-145.965
CUBEBUG 1 22 Dec 23:12:41 23:17:01 63° 259° (W) 23:21:20 437.445
AISAT 22 Dec 23:16:56 23:20:11 20° 265° (W) 23:23:27 437.250
ANTELSAT 22 Dec 23:34:26 23:38:58 48° 287° (WNW) 23:43:29 437.575/2403.000
POPSAT HIP 1 22 Dec 23:41:33 23:45:45 59° 285° (WNW) 23:49:57 437.405
BUGSAT 1 22 Dec 23:55:28 23:59:24 49° 286° (WNW) 00:03:21 437.445
TISAT 1 22 Dec 23:59:28 00:03:40 79° 258° (WSW) 00:07:53 437.305
DUCHIFAT 1 23 Dec 00:08:43 00:12:22 29° 289° (WNW) 00:16:02 145.980
TIGRISAT 23 Dec 00:09:09 00:12:43 22° 292° (WNW) 00:16:17 435.000
YUBILEINY 23 Dec 00:09:21 00:18:07 87° 276° (W) 00:26:53 435.215
SPROUT 23 Dec 00:10:54 00:15:08 63° 259° (W) 00:19:23 437.525
AIST 2 23 Dec 00:12:41 00:14:09 12° 253° (WSW) 00:15:37 435.215
AUBIESAT-1 23 Dec 00:14:28 00:16:10 12° 58° (ENE) 00:17:51 437.475
SWISSCUBE 23 Dec 00:17:34 00:21:24 25° 68° (ENE) 00:25:15 437.505
ITUPSAT 1 23 Dec 00:19:11 00:22:56 23° 68° (ENE) 00:26:41 437.325
ESTCUBE 1 23 Dec 00:22:47 00:23:46 11° 269° (W) 00:24:46 437.505/2401.250
QB50P2 23 Dec 00:24:40 00:27:42 19° 292° (WNW) 00:30:44 145.880/145.840
O/OREOS (USA 219) 23 Dec 00:29:36 00:34:03 81° 290° (WNW) 00:38:32 437.305
NANOSAT C BR1 23 Dec 00:34:51 00:37:20 15° 293° (WNW) 00:39:48 145.865
POLYITAN 1 23 Dec 00:34:53 00:37:22 15° 293° (WNW) 00:39:51 437.675
M-CUBED/EXP-1 PRIME 23 Dec 00:39:32 00:43:21 24° 64° (ENE) 00:47:13 437.505
BEESAT 23 Dec 00:41:19 00:45:46 40° 72° (ENE) 00:50:14 436.000
UNISAT 6 23 Dec 00:42:22 00:42:55 10° 297° (WNW) 00:43:29 437.425
Oscar 19 23 Dec 00:42:37 00:44:58 13° 92° (E) 00:47:19 437.125/150
PCSat 23 Dec 00:48:10 00:49:28 11° 258° (WSW) 00:50:46 145.827
QB50P1 23 Dec 00:51:28 00:52:03 10° 295° (WNW) 00:52:37 145.935-145.965
KKS-1 23 Dec 01:06:59 01:09:07 13° 65° (ENE) 01:11:16 437.445
AUBIESAT-1 23 Dec 01:45:35 01:50:24 80° 253° (WSW) 01:55:18 437.475
VERMONT LUNAR 23 Dec 01:49:22 01:52:48 49° 152° (SSE) 01:56:13 437.305
SWISSCUBE 23 Dec 01:54:54 01:59:06 30° 263° (W) 02:03:18 437.505
ITUPSAT 1 23 Dec 01:56:20 02:00:37 32° 262° (W) 02:04:55 437.325
YUBILEINY 23 Dec 02:11:30 02:16:08 15° 295° (WNW) 02:20:48 435.215
M-CUBED/EXP-1 PRIME 23 Dec 02:13:37 02:18:04 37° 258° (WSW) 02:22:36 437.505
PHONESAT 2.4 23 Dec 02:15:33 02:19:04 50° 152° (SSE) 02:22:35 2401.200-2431.200
Oscar 19 23 Dec 02:19:32 02:24:40 63° 286° (WNW) 02:29:47 437.125/150
BEESAT 23 Dec 02:20:29 02:23:43 18° 266° (W) 02:26:58 436.000
STARS 23 Dec 02:31:34 02:35:56 82° 77° (ENE) 02:40:20 437.465
HORYU 2 23 Dec 02:33:31 02:34:43 11° 92° (E) 02:35:56 437.375
ITAMSAT 1 23 Dec 02:40:54 02:46:04 74° 103° (ESE) 02:51:14 435.822/435.867
KKS-1 23 Dec 02:41:02 02:45:18 49° 260° (W) 02:49:37 437.445
Gurwin Techsat 1B 23 Dec 02:51:02 02:56:15 57° 101° (E) 03:01:27 435.225
AIST 1 23 Dec 03:06:11 03:09:54 28° 78° (ENE) 03:13:35
VERMONT LUNAR 23 Dec 03:27:43 03:31:08 46° 348° (NNW) 03:34:33 437.305
AO-7 23 Dec 03:46:03 03:53:20 32° 98° (E) 04:00:32 29.400- 29.500
PHONESAT 2.4 23 Dec 03:54:17 03:57:47 47° 348° (NNW) 04:01:18 2401.200-2431.200
HORYU 2 23 Dec 04:07:16 04:11:42 57° 286° (WNW) 04:16:06 437.375
MOZHAYETS 4 23 Dec 04:09:00 04:13:18 39° 72° (ENE) 04:17:39
GONETS M04 23 Dec 04:11:48 04:17:42 20° 81° (E) 04:23:35
ITAMSAT 1 23 Dec 04:22:57 04:24:53 12° 298° (WNW) 04:26:49 435.822/435.867
JAS-2 23 Dec 04:29:27 04:33:09 19° 92° (E) 04:36:43 435.910
Gurwin Techsat 1B 23 Dec 04:32:31 04:35:42 16° 296° (WNW) 04:38:54 435.225
SO-50 23 Dec 04:39:15 04:42:45 19° 48° (NE) 04:46:15 436.795
AIST 1 23 Dec 04:44:25 04:47:17 18° 272° (W) 04:50:10
VERMONT LUNAR 23 Dec 05:06:32 05:09:50 36° 5° (N) 05:13:08 437.305
STRAND 1 23 Dec 05:18:48 05:21:40 15° 64° (ENE) 05:24:32 437.568
PRISM 23 Dec 05:30:38 05:34:38 43° 73° (ENE) 05:38:38 437.425
PHONESAT 2.4 23 Dec 05:33:28 05:36:53 37° 5° (N) 05:40:17 2401.200-2431.200
AO-7 23 Dec 05:38:16 05:46:15 51° 294° (WNW) 05:54:12 29.400- 29.500
CUBESAT XI-V 23 Dec 05:40:14 05:44:05 26° 70° (ENE) 05:47:56 437.345
MOZHAYETS 4 23 Dec 05:47:37 05:50:39 17° 267° (W) 05:53:41
Cubesat XI-IV 23 Dec 05:57:31 06:01:58 27° 96° (E) 06:06:23 437.490
GONETS M04 23 Dec 06:04:41 06:13:30 74° 278° (W) 06:22:21
JAS-2 23 Dec 06:13:25 06:18:32 42° 290° (WNW) 06:23:22 435.910
SO-50 23 Dec 06:18:49 06:23:35 52° 245° (WSW) 06:28:20 436.795
CUTE-I 23 Dec 06:29:24 06:34:37 55° 101° (E) 06:39:48 437.470
VERMONT LUNAR 23 Dec 06:44:51 06:48:23 84° 22° (NNE) 06:51:54 437.305
STRAND 1 23 Dec 06:55:19 07:00:20 57° 259° (W) 07:05:22 437.568
PRISM 23 Dec 07:08:22 07:10:19 13° 267° (W) 07:12:17 437.425
PHONESAT 2.4 23 Dec 07:12:10 07:15:48 85° 21° (NNE) 07:19:26 2401.200-2431.200
CUBESAT XI-V 23 Dec 07:17:30 07:21:25 26° 264° (W) 07:25:19 437.345
Cubesat XI-IV 23 Dec 07:37:19 07:42:01 33° 291° (WNW) 07:46:43 437.490
MaSat-1 23 Dec 07:55:50 07:57:58 34° 111° (ESE) 08:00:02 437.345
HO-68 23 Dec 08:05:20 08:10:06 19° 93° (E) 08:14:49 435.675
GONETS M04 23 Dec 08:08:45 08:11:54 12° 298° (WNW) 08:15:03
CUTE-I 23 Dec 08:10:52 08:14:11 17° 296° (WNW) 08:17:31 437.470
CANX-2 23 Dec 08:19:25 08:22:03 16° 93° (E) 08:24:41 2200.000
VERMONT LUNAR 23 Dec 08:23:50 08:26:24 19° 215° (SW) 08:28:57 437.305
COMPASS 1 23 Dec 08:33:15 08:35:35 14° 93° (E) 08:37:54 437.405
DANDE 23 Dec 08:36:00 08:37:15 11° 80° (E) 08:38:36 436.750
SEEDS 23 Dec 08:41:54 08:45:17 22° 95° (E) 08:48:37 437.485
BRITE-PL 23 Dec 08:45:55 08:50:30 39° 99° (E) 08:55:24 437.365/2234.400
CUTE 1.7 + AOD 2 23 Dec 08:48:48 08:52:40 32° 97° (E) 08:56:30 437.475
PHONESAT 2.4 23 Dec 08:51:32 08:54:11 19° 216° (SW) 08:56:50 2401.200-2431.200
GOMX 1 23 Dec 08:58:02 09:02:37 37° 98° (E) 09:07:26 467.674
O/OREOS (USA 219) 23 Dec 09:06:10 09:07:06 11° 56° (NE) 09:08:01 437.305
DOVE 4 23 Dec 09:10:08 09:14:41 36° 98° (E) 09:19:25 437.250
CUSAT 1 23 Dec 09:10:11 09:13:38 42° 91° (E) 09:18:13 437.405
UWE-3 23 Dec 09:14:13 09:14:34 10° 91° (E) 09:14:54 435.000/436.395/437.385
CINEMA 3 23 Dec 09:14:46 09:18:40 24° 95° (E) 09:22:37 145.822/145.860
DX 1 23 Dec 09:18:55 09:21:24 15° 94° (E) 09:23:52 434.975-435.025
DUCHIFAT 1 23 Dec 09:25:48 09:26:51 11° 65° (ENE) 09:27:54 145.980
TIGRISAT 23 Dec 09:28:54 09:32:06 20° 68° (ENE) 09:35:23 435.000
AAUSAT CUBESAT 2 23 Dec 09:29:45 09:33:58 62° 101° (E) 09:38:08 437.432
Oscar 11 23 Dec 09:35:05 09:39:02 33° 97° (E) 09:42:57 145.826/435.025
QB50P2 23 Dec 09:39:43 09:42:26 17° 68° (ENE) 09:45:09 145.880/145.840
UKube-1 23 Dec 09:45:38 09:49:27 30° 98° (E) 09:53:14 .
NANOSAT C BR1 23 Dec 09:48:41 09:51:50 21° 69° (ENE) 09:55:00 145.865
POLYITAN 1 23 Dec 09:49:03 09:52:16 22° 69° (ENE) 09:55:29 437.675
HO-68 23 Dec 09:51:11 09:58:17 69° 289° (WNW) 10:05:21 435.675
CANX-2 23 Dec 09:54:07 09:58:06 36° 287° (WNW) 10:02:02 2200.000
UNISAT 6 23 Dec 09:58:31 10:02:41 45° 73° (ENE) 10:06:57 437.425
QB50P1 23 Dec 10:03:00 10:06:42 31° 71° (ENE) 10:10:24 145.935-145.965
DELFI C3 23 Dec 10:05:53 10:09:59 65° 101° (E) 10:14:02 145.870
50 SAT 23 Dec 10:07:06 10:09:20 14° 93° (E) 10:11:34 437.505
COMPASS 1 23 Dec 10:07:29 10:11:26 39° 287° (WNW) 10:15:22 437.405
ZACube-1 23 Dec 10:12:50 10:17:10 42° 99° (E) 10:21:32 437.345
CUBEBUG 2 23 Dec 10:14:49 10:19:29 64° 101° (E) 10:24:12 437.445
DANDE 23 Dec 10:16:36 10:19:53 34° 287° (WNW) 10:24:10 436.750
SEEDS 23 Dec 10:17:28 10:21:01 26° 289° (WNW) 10:24:32 437.485
YUBILEINY 23 Dec 10:23:37 10:31:41 40° 76° (ENE) 10:39:42 435.215
BRITE-PL 23 Dec 10:25:09 10:28:46 21° 290° (WNW) 10:32:35 437.365/2234.400
VELOX 1 23 Dec 10:25:12 10:29:01 28° 97° (E) 10:32:49 145.980
CUTE 1.7 + AOD 2 23 Dec 10:25:20 10:28:20 19° 292° (WNW) 10:31:19 437.475
ANTELSAT 23 Dec 10:30:31 10:34:52 76° 258° (WSW) 10:39:23 437.575/2403.000
POPSAT HIP 1 23 Dec 10:31:33 10:35:43 69° 76° (ENE) 10:39:55 437.405
GOMX 1 23 Dec 10:36:44 10:40:30 22° 290° (WNW) 10:44:25 467.674
FUNcube-1 23 Dec 10:38:28 10:43:03 83° 102° (ESE) 10:47:39 145.935
ESTCUBE 1 23 Dec 10:39:26 10:42:08 16° 93° (E) 10:44:49 437.505/2401.250
O/OREOS (USA 219) 23 Dec 10:42:28 10:46:58 71° 252° (WSW) 10:51:29 437.305
BUGSAT 1 23 Dec 10:42:41 10:46:45 75° 76° (ENE) 10:50:48 437.445
UWE-3 23 Dec 10:46:50 10:51:26 67° 284° (WNW) 10:56:05 435.000/436.395/437.385
JUGNU 23 Dec 10:47:11 10:50:00 14° 169° (S) 10:52:49 437.505
DOVE 4 23 Dec 10:48:26 10:52:12 23° 291° (WNW) 10:56:07 437.250
HUMSAT D 23 Dec 10:50:50 10:55:09 65° 101° (E) 10:59:28 437.325/437.525
CINEMA 3 23 Dec 10:51:31 10:55:49 33° 288° (WNW) 11:00:13 145.822/145.860
DX 1 23 Dec 10:53:42 10:57:46 40° 288° (WNW) 11:01:49 434.975-435.025
CUSAT 1 23 Dec 10:55:52 10:57:26 12° 298° (WNW) 10:59:09 437.405
DUCHIFAT 1 23 Dec 10:58:05 11:02:11 55° 260° (W) 11:06:19 145.980
RS-15 23 Dec 11:01:36 11:12:13 58° 112° (ESE) 11:22:46 29.354- 29.394
TIGRISAT 23 Dec 11:04:47 11:08:37 30° 263° (W) 11:12:34 435.000
CUBEBUG 1 23 Dec 11:05:09 11:08:55 28° 97° (E) 11:12:40 437.445
AISAT 23 Dec 11:09:38 11:14:05 84° 284° (WNW) 11:18:33 437.250
Oscar 11 23 Dec 11:11:55 11:14:56 19° 292° (WNW) 11:17:57 145.826/435.025
QB50P2 23 Dec 11:14:13 11:18:03 34° 262° (W) 11:21:55 145.880/145.840
ISS 23 Dec 11:21:05 11:22:56 14° 128° (SE) 11:24:47 145.825
UKube-1 23 Dec 11:22:12 11:25:23 20° 292° (WNW) 11:28:34 .
NANOSAT C BR1 23 Dec 11:23:58 11:27:32 27° 263° (W) 11:31:07 145.865
POLYITAN 1 23 Dec 11:24:31 11:28:02 26° 263° (W) 11:31:36 437.675
UNISAT 6 23 Dec 11:37:32 11:39:42 13° 268° (W) 11:41:53 437.425
QB50P1 23 Dec 11:39:43 11:42:36 18° 265° (W) 11:45:30 145.935-145.965
50 SAT 23 Dec 11:40:48 11:44:39 38° 287° (WNW) 11:48:30 437.505
HO-68 23 Dec 11:42:52 11:44:41 11° 306° (NW) 11:46:30 435.675
TISAT 1 23 Dec 11:48:19 11:51:28 20° 95° (E) 11:54:36 437.305
ZACube-1 23 Dec 11:50:17 11:53:10 17° 293° (WNW) 11:56:05 437.345
CUBEBUG 2 23 Dec 11:53:49 11:55:37 12° 295° (WNW) 11:57:26 437.445
Oscar 19 23 Dec 11:56:47 11:59:39 15° 64° (ENE) 12:02:33 437.125/150
SRMSAT 23 Dec 11:56:53 11:59:11 12° 168° (SSE) 12:01:29 437.500
PCSat 23 Dec 11:59:28 12:02:29 15° 104° (ESE) 12:05:30 145.827
SPROUT 23 Dec 12:01:08 12:04:49 27° 97° (E) 12:08:29 437.525
VELOX 1 23 Dec 12:01:59 12:05:25 23° 291° (WNW) 12:08:51 145.980
BEESAT 3 23 Dec 12:03:24 12:07:01 32° 113° (ESE) 12:10:42 437.485
ESTCUBE 1 23 Dec 12:14:57 12:19:09 40° 288° (WNW) 12:23:19 437.505/2401.250
YUBILEINY 23 Dec 12:20:32 12:28:18 39° 273° (W) 12:36:06 435.215
AIST 2 23 Dec 12:28:07 12:31:29 24° 111° (ESE) 12:34:55 435.215
JUGNU 23 Dec 12:34:31 12:38:16 17° 180° (S) 12:42:02 437.505
CUBEBUG 1 23 Dec 12:41:50 12:45:05 21° 291° (WNW) 12:48:20 437.445
BEESAT 2 23 Dec 12:45:34 12:49:40 90° 310° (NW) 12:53:51 435.950
BEESAT 23 Dec 12:46:33 12:48:40 13° 92° (E) 12:50:47 436.000
ISS 23 Dec 12:56:01 12:59:12 45° 322° (NW) 13:02:24 145.825
RS-15 23 Dec 13:14:57 13:24:54 39° 313° (NW) 13:34:59 29.354- 29.394
TISAT 1 23 Dec 13:23:38 13:27:15 28° 289° (WNW) 13:30:51 437.305
Oscar 19 23 Dec 13:33:24 13:38:27 58° 259° (W) 13:43:33 437.125/150
SPROUT 23 Dec 13:37:26 13:40:44 22° 291° (WNW) 13:44:01 437.525
PCSat 23 Dec 13:39:59 13:45:18 60° 299° (WNW) 13:50:41 145.827
BEESAT 3 23 Dec 13:42:07 13:45:14 21° 309° (NW) 13:48:23 437.485
SRMSAT 23 Dec 13:43:53 13:47:36 17° 178° (S) 13:51:18 437.500
ITAMSAT 1 23 Dec 13:55:54 14:01:05 83° 76° (ENE) 14:06:16 435.822/435.867
SWISSCUBE 23 Dec 13:57:41 14:02:28 88° 103° (ESE) 14:07:12 437.505
ITUPSAT 1 23 Dec 13:59:27 14:04:14 83° 103° (ESE) 14:08:59 437.325
M-CUBED/EXP-1 PRIME 23 Dec 14:00:35 14:03:53 23° 99° (E) 14:06:57 437.505
AIST 2 23 Dec 14:06:18 14:09:58 28° 307° (NW) 14:13:41 435.215
Gurwin Techsat 1B 23 Dec 14:09:07 14:14:22 67° 74° (ENE) 14:19:38 435.225
BEESAT 23 Dec 14:22:09 14:26:48 54° 286° (WNW) 14:31:25 436.000
JUGNU 23 Dec 14:23:36 14:26:33 14° 190° (S) 14:29:29 437.505
STARS 23 Dec 14:25:33 14:28:46 19° 95° (E) 14:31:58 437.465
KKS-1 23 Dec 14:35:16 14:39:28 39° 99° (E) 14:43:39 437.445
AO-7 23 Dec 14:41:59 14:49:15 35° 62° (ENE) 14:56:32 29.400- 29.500
HORYU 2 23 Dec 15:02:35 15:07:03 90° 76° (ENE) 15:11:34 437.375
AUBIESAT-1 23 Dec 15:06:50 15:10:54 54° 291° (WNW) 15:14:35 437.475
SRMSAT 23 Dec 15:32:48 15:36:02 15° 188° (S) 15:39:16 437.500
AIST 1 23 Dec 15:33:17 15:36:31 21° 88° (E) 15:39:46
M-CUBED/EXP-1 PRIME 23 Dec 15:35:29 15:38:48 23° 297° (WNW) 15:41:53 437.505
RS-15 23 Dec 15:36:43 15:41:47 14° 345° (NNW) 15:46:55 29.354- 29.394
Gurwin Techsat 1B 23 Dec 15:52:32 15:54:44 13° 269° (W) 15:56:56 435.225
STARS 23 Dec 16:01:18 16:05:15 32° 289° (WNW) 16:09:12 437.465
MOZHAYETS 4 23 Dec 16:09:30 16:11:07 12° 91° (E) 16:12:44
KKS-1 23 Dec 16:12:53 16:15:46 17° 293° (WNW) 16:18:39 437.445
GONETS M04 23 Dec 16:18:58 16:27:23 49° 78° (ENE) 16:35:41
JAS-2 23 Dec 16:19:33 16:27:00 59° 73° (ENE) 16:33:47 435.910
AO-7 23 Dec 16:33:46 16:41:42 49° 259° (WSW) 16:49:44 29.400- 29.500
AIST 1 23 Dec 17:10:17 17:13:59 26° 283° (WNW) 17:17:41
Cubesat XI-IV 23 Dec 17:16:42 17:21:26 34° 69° (ENE) 17:26:09 437.490
MaSat-1 23 Dec 17:27:34 17:29:25 19° 63° (ENE) 17:31:21 437.345
MOZHAYETS 4 23 Dec 17:44:08 17:48:39 56° 285° (WNW) 17:53:07
CUTE-I 23 Dec 17:48:21 17:53:37 67° 74° (ENE) 17:58:54 437.470
RS-15 23 Dec 17:54:23 18:01:06 17° 24° (NNE) 18:07:55 29.354- 29.394
JAS-2 23 Dec 18:06:14 18:12:09 24° 265° (W) 18:17:45 435.910
GONETS M04 23 Dec 18:16:25 18:23:45 32° 275° (W) 18:31:03
HO-68 23 Dec 18:34:58 18:36:34 11° 54° (NE) 18:38:11 435.675
PRISM 23 Dec 18:51:55 18:56:03 71° 284° (WNW) 19:00:08 437.425
Cubesat XI-IV 23 Dec 18:57:05 19:01:29 26° 264° (W) 19:05:54 437.490
STRAND 1 23 Dec 19:08:48 19:13:51 62° 101° (ESE) 19:18:53 437.568
